[[{"header":{"parameterUnit":"m.s-1","parameterCategory":1,"la1":30.2992,"la2":30.254,"lo1":-89.0895,"lo2":-89.0443,"dy":0.0025,"dx":0.0025,"nx":19,"ny":19,"refTime":"2026-05-03T03:00:00:Z","depth":0,"parameterNumber":2,"parameterNumberName":"U-component_of_WINDS"},"data":[0,0,0,-0.6824,-0.6823,-0.6767,-0.6766,-0.6709,-0.6709,0,0,0,0,0,0,0,0,0,0,0,-0.6849,-0.6849,-0.6824,-0.6823,-0.6767,-0.6766,-0.6709,-0.6709,0,0,0,0,0,0,0,0,0,0,0,-0.6849,-0.6849,-0.6849,-0.6823,-0.6767,-0.6766,-0.671,-0.6747,0,0,0,0,0,0,0,0,0,0,-0.68,-0.6829,-0.6849,-0.6849,-0.6823,-0.6767,-0.6766,-0.6749,-0.6745,-0.6741,0,-0.6739,0,-0.6723,-0.6706,-0.6706,0,0,0,-0.6817,-0.6833,-0.681,-0.6849,-0.6822,-0.6767,-0.6791,-0.6746,-0.6742,-0.6736,-0.6738,-0.6735,-0.6722,-0.6706,-0.6706,-0.6703,-0.6703,0,0,-0.6821,-0.6843,-0.6814,-0.6808,-0.6816,-0.6792,-0.6789,-0.6743,-0.6747,-0.6738,-0.6734,-0.6721,-0.6705,-0.6705,-0.6703,-0.6703,0,0,0,-0.6833,-0.6846,-0.6824,-0.6811,-0.6799,-0.6791,-0.6787,-0.6749,-0.674,-0.6733,-0.6721,-0.6705,-0.6705,-0.6702,-0.6703,-0.6737,0,0,0,-0.6835,-0.6853,-0.6826,-0.6839,-0.68,-0.6773,-0.6794,-0.6744,-0.6738,-0.6721,-0.6705,-0.6704,-0.6702,-0.6702,-0.6736,-0.675,0,0,0,-0.685,-0.6855,-0.6849,-0.684,-0.6817,-0.6773,-0.6762,-0.6742,-0.673,-0.6706,-0.6704,-0.6702,-0.6702,-0.6734,-0.6747,-0.6756,0,0,0,-0.6872,-0.688,-0.685,-0.6854,-0.6817,-0.6795,-0.6762,-0.6744,-0.6727,-0.6705,-0.6702,-0.6703,-0.6734,-0.6746,-0.6755,-0.6768,-0.6776,0,0,-0.6894,-0.6883,-0.6884,-0.6855,-0.6844,-0.6802,-0.6796,-0.676,-0.6737,-0.6716,-0.6716,-0.6736,-0.6747,-0.6756,-0.6809,-0.6815,0,0,0,-0.6899,-0.6899,-0.6891,-0.6876,-0.6849,-0.6827,-0.6789,-0.6776,-0.6757,-0.673,-0.6741,-0.6747,-0.6751,-0.6757,-0.6762,-0.6765,-0.6706,-0.6706,-0.6706,-0.6961,-0.6933,-0.6932,-0.6897,-0.6883,-0.6845,-0.6832,-0.6808,-0.6782,-0.6785,-0.6779,-0.6814,-0.6822,-0.6825,-0.6829,-0.6783,-0.6783,-0.6783,-0.6783,-0.6992,-0.6989,-0.6956,-0.6943,-0.6914,-0.6904,-0.6868,-0.6851,-0.6838,-0.6816,-0.6819,-0.6798,-0.6833,-0.6834,-0.6786,-0.6785,-0.6785,-0.6785,-0.6785,-0.703,-0.7023,-0.7007,-0.6984,-0.697,-0.6935,-0.6925,-0.6898,-0.6873,-0.6875,-0.6866,-0.6866,-0.6862,-0.6873,-0.6873,-0.6873,-0.6873,-0.6873,-0.6873,-0.7076,-0.7057,-0.7051,-0.7024,-0.7012,-0.6993,-0.6956,-0.6944,-0.6924,-0.6906,-0.6905,-0.6881,-0.6841,-0.6832,-0.6875,-0.6875,-0.6874,-0.6874,-0.6874,-0.7117,-0.7104,-0.7095,-0.7083,-0.705,-0.7039,-0.7006,-0.6984,-0.697,-0.6967,-0.6942,-0.6917,-0.6904,-0.6899,-0.6892,-0.6947,-0.6947,-0.6947,-0.6947,-0.715,-0.7141,-0.7127,-0.711,-0.709,-0.706,-0.7053,-0.7026,-0.6996,-0.6986,-0.6974,-0.6962,-0.6959,-0.6947,-0.6942,-0.6935,-0.7,-0.7,-0.7,-0.7175,-0.7163,-0.7161,-0.7131,-0.7104,-0.7082,-0.7075,-0.7059,-0.7022,-0.7001,-0.6978,-0.6976,-0.6956,-0.6951,-0.6929,-0.6921,-0.6906,0,0]},{"header":{"parameterUnit":"m.s-1","parameterCategory":1,"la1":30.2992,"la2":30.254,"lo1":-89.0895,"lo2":-89.0443,"dy":0.0025,"dx":0.0025,"nx":19,"ny":19,"refTime":"2026-05-03T03:00:00:Z","depth":0,"parameterNumber":3,"parameterNumberName":"V-component_of_WINDS"},"data":[0,0,0,4.206,4.2059,4.2035,4.2035,4.1997,4.1997,0,0,0,0,0,0,0,0,0,0,0,4.2063,4.2063,4.206,4.2059,4.2035,4.2035,4.1997,4.1997,0,0,0,0,0,0,0,0,0,0,0,4.2063,4.2063,4.2062,4.2059,4.2035,4.2035,4.1998,4.2018,0,0,0,0,0,0,0,0,0,0,4.2042,4.2042,4.2063,4.2062,4.2059,4.2036,4.2035,4.2019,4.2016,4.2005,0,4.1996,0,4.1996,4.1994,4.1994,0,0,0,4.2061,4.2044,4.2041,4.2062,4.2058,4.2036,4.2047,4.2018,4.2015,4.2002,4.1995,4.1994,4.1995,4.1994,4.1994,4.1926,4.1925,0,0,4.2062,4.2057,4.2043,4.2039,4.2044,4.2047,4.2046,4.2016,4.2007,4.1995,4.1993,4.1995,4.1994,4.1993,4.1926,4.1926,0,0,0,4.2065,4.2057,4.2055,4.2041,4.2037,4.2047,4.2045,4.2009,4.2009,4.1993,4.1994,4.1993,4.1993,4.1927,4.1926,4.1901,0,0,0,4.2065,4.2059,4.2056,4.2052,4.2038,4.2023,4.2038,4.2011,4.2008,4.1994,4.1993,4.1992,4.1927,4.1926,4.1902,4.1889,0,0,0,4.2066,4.2059,4.2055,4.2052,4.2042,4.2024,4.2022,4.201,4.2008,4.1994,4.1992,4.1927,4.1926,4.1904,4.1891,4.1869,0,0,0,4.2064,4.2031,4.2054,4.2018,4.2042,4.2009,4.2022,4.1997,4.1982,4.1993,4.1927,4.1926,4.1904,4.1893,4.1871,4.1849,4.184,0,0,4.202,4.2026,4.2005,4.2025,4.1987,4.2013,4.197,4.1961,4.1964,4.1938,4.1936,4.1902,4.1892,4.187,4.1792,4.1784,0,0,0,4.1989,4.1974,4.1965,4.1952,4.1945,4.1938,4.1936,4.1932,4.1911,4.195,4.1888,4.1883,4.187,4.186,4.1853,4.1842,4.1921,4.1922,4.1922,4.1917,4.1925,4.1891,4.1895,4.1882,4.1881,4.187,4.1865,4.1875,4.186,4.1852,4.1804,4.1792,4.1788,4.1776,4.1842,4.1842,4.1842,4.1842,4.1852,4.1832,4.1848,4.1821,4.1828,4.1805,4.1803,4.1811,4.179,4.1811,4.18,4.1821,4.1779,4.177,4.184,4.184,4.1841,4.1841,4.1841,4.1805,4.1796,4.1794,4.1776,4.176,4.1766,4.1745,4.1753,4.1759,4.1749,4.1741,4.1741,4.1742,4.1745,4.1745,4.1744,4.1744,4.1744,4.1744,4.1756,4.1755,4.1737,4.1729,4.1721,4.1712,4.1712,4.1704,4.1697,4.1704,4.1704,4.1715,4.1775,4.1789,4.1741,4.1742,4.1742,4.1743,4.1743,4.1685,4.1703,4.1676,4.1669,4.1659,4.1643,4.1654,4.1638,4.1633,4.1622,4.1636,4.168,4.1686,4.1691,4.1703,4.1636,4.1636,4.1636,4.1636,4.1645,4.165,4.1624,4.1612,4.1601,4.1608,4.1576,4.1576,4.1578,4.1575,4.1586,4.1603,4.1607,4.1611,4.1617,4.1628,4.1544,4.1544,4.1544,4.1601,4.1606,4.1578,4.1582,4.1575,4.1569,4.1539,4.1523,4.1529,4.154,4.1572,4.1576,4.1603,4.1612,4.1622,4.1632,4.1653,0,0]}]]